Theta_e
347 340 336 336 334 332 332 334 336 337 338 338 338 337 336 334 330 326 322 316 312 312 313 314 315 317 321 324 326 329 331 333 335 336 336 336 336 337 338 337 337 338 338 338 337 337 336 336 335 333 333 334 333 333 333 333 332 333 333 333 333 333 332 332 333 332 331 328 322 316 318 322 318 312 311 312 309 308 308 306 307 308 316 324 322
348 341 335 335 333 332 332 334 336 337 338 338 338 337 336 334 331 327 322 317 312 312 314 314 315 317 321 324 326 329 331 332 334 335 336 336 336 337 337 337 337 337 337 337 336 336 336 335 334 333 333 333 333 333 332 333 333 333 333 332 330 330 330 331 331 330 328 326 321 315 314 317 315 312 310 310 310 312 313 310 311 312 319 325 325
349 342 334 334 333 332 332 334 336 337 338 338 338 337 336 334 332 328 323 317 312 312 313 314 315 317 320 323 325 327 330 332 332 334 335 335 335 336 336 336 336 337 336 336 336 335 335 334 334 333 333 333 333 332 333 333 332 333 330 327 327 328 330 331 331 329 325 322 319 313 312 313 312 311 309 310 311 314 318 321 319 316 319 322 324
348 341 334 334 333 333 333 334 336 337 338 338 338 337 337 334 332 330 325 319 313 312 313 313 314 316 319 322 324 326 330 331 331 333 334 334 335 335 336 335 335 335 335 335 335 335 334 334 334 334 333 333 333 332 331 330 332 332 327 325 328 329 330 331 330 328 323 320 318 312 309 311 315 317 314 312 311 310 316 323 322 319 320 319 320
346 339 334 334 333 333 332 334 336 337 338 338 338 337 337 334 332 331 327 321 314 311 313 313 314 315 318 321 323 326 329 330 331 331 332 333 334 335 335 335 334 333 334 335 334 335 334 334 334 334 334 333 332 331 330 329 327 326 324 327 330 330 331 332 331 330 326 323 322 315 308 315 323 326 324 321 317 312 312 314 315 316 317 314 313
346 338 334 334 333 332 333 334 335 337 337 337 338 337 336 334 333 332 328 323 316 311 313 313 313 314 316 320 321 324 328 329 329 329 330 332 333 333 334 334 333 333 333 333 334 334 334 334 333 333 333 332 332 330 329 324 317 319 326 330 331 331 332 334 333 332 331 328 327 319 309 318 325 327 328 325 317 312 309 309 310 310 310 310 310
347 339 334 334 333 332 333 333 335 336 337 337 337 337 336 334 333 332 328 324 317 310 312 313 313 313 314 318 320 322 325 327 327 327 327 328 330 331 331 332 332 331 331 332 333 333 332 331 328 327 329 330 328 325 320 313 314 324 330 330 329 330 331 333 334 333 331 330 329 320 311 316 321 325 327 320 311 309 309 309 309 310 310 311 310
345 338 334 334 333 333 333 333 334 335 336 336 336 336 336 334 333 332 328 324 317 310 312 313 313 314 314 316 319 321 323 325 325 325 325 324 326 328 329 329 329 329 329 329 329 329 329 325 320 318 320 320 317 313 310 313 321 328 329 329 330 331 331 332 332 332 331 330 328 318 312 315 318 324 323 313 308 310 310 310 310 311 311 311 310
342 335 334 335 334 333 332 332 333 334 335 335 336 335 335 334 333 331 326 323 317 310 311 313 313 314 313 315 318 320 321 323 324 323 322 322 324 327 329 329 328 326 326 325 325 324 324 319 313 311 311 310 309 307 311 322 328 329 329 331 332 332 332 331 330 330 329 328 323 314 312 315 316 318 315 309 310 310 310 311 311 311 311 311 310
340 336 335 334 334 333 331 331 330 333 335 335 336 335 335 334 332 329 325 322 317 310 311 312 313 314 313 314 317 319 320 321 323 321 320 322 324 325 327 328 326 324 322 320 318 317 316 314 311 309 309 308 309 308 313 325 330 330 331 330 331 332 332 331 331 329 326 324 316 312 313 312 312 311 310 310 311 310 312 311 311 312 312 310 308
340 340 337 334 335 333 330 328 327 331 333 334 335 334 334 332 331 327 323 321 316 310 310 311 313 314 314 314 316 319 321 320 321 321 320 321 321 322 323 325 323 321 318 315 312 311 311 311 310 310 309 308 310 312 316 325 329 329 329 329 330 330 330 330 331 329 324 320 314 312 312 310 311 310 310 311 311 311 312 312 312 312 311 309 308
342 343 341 336 334 332 326 324 325 328 331 333 333 333 331 330 327 323 321 320 314 309 310 311 312 314 314 314 315 318 321 320 320 322 321 320 319 318 319 320 318 317 315 312 310 310 310 310 310 310 309 309 311 316 320 326 329 329 330 331 332 331 330 328 327 326 321 317 313 311 311 311 311 311 311 311 311 312 312 311 311 311 310 309 308
344 344 344 338 334 329 321 320 323 325 328 329 329 329 327 324 322 320 320 317 311 310 310 310 311 313 314 314 315 317 319 319 320 322 322 320 318 316 316 316 315 314 313 312 310 309 309 309 309 310 309 309 314 319 323 328 330 331 332 332 333 333 332 330 326 321 316 314 312 311 311 311 311 311 311 311 311 311 312 311 311 311 310 310 309
345 344 343 338 332 325 317 318 321 322 323 324 323 322 322 321 321 320 318 313 310 310 310 310 311 313 314 314 314 316 317 318 319 321 322 320 316 315 314 313 313 313 314 312 310 309 309 309 309 309 309 308 315 323 327 330 331 332 332 332 333 333 333 331 325 317 312 312 311 311 311 311 312 312 312 312 312 312 312 311 311 311 310 310 309
346 343 339 335 329 321 316 317 318 318 319 319 319 319 320 320 319 317 314 311 310 310 310 310 311 312 313 314 314 314 315 315 317 319 321 320 316 315 313 311 312 313 314 313 311 309 309 309 309 309 308 309 316 325 330 332 332 332 333 333 333 333 333 330 323 316 313 311 311 311 311 312 312 312 313 313 312 312 312 312 312 311 310 309 308
347 342 335 332 326 320 317 317 317 317 316 316 317 317 318 317 316 314 312 312 310 310 310 310 311 312 313 313 314 313 313 313 315 319 320 318 317 315 313 312 312 313 313 313 311 310 309 309 309 309 309 310 316 325 331 332 332 333 332 332 333 332 332 331 323 316 313 311 312 312 311 312 312 313 313 313 312 312 313 312 312 311 310 308 307
347 341 333 330 326 322 320 319 319 317 316 316 315 315 315 315 314 314 313 312 311 311 311 311 312 312 313 313 313 313 313 313 314 317 318 317 317 317 315 314 313 313 313 313 312 310 309 309 309 309 309 310 317 325 330 332 332 332 331 332 333 332 332 329 320 314 312 312 312 312 312 312 312 313 313 313 313 313 313 312 311 310 308 307 307
344 340 334 332 330 326 324 323 321 318 317 315 315 315 315 316 315 315 314 313 313 312 312 312 312 312 313 313 313 313 313 313 313 315 317 317 317 317 317 316 316 315 314 312 312 311 310 310 309 309 310 310 317 323 327 330 331 332 333 334 334 332 330 325 317 313 312 312 312 312 312 312 312 313 313 313 313 312 311 310 309 308 307 307 308
341 338 336 334 331 329 327 325 322 320 318 316 316 315 315 315 315 315 315 314 314 313 313 313 313 313 313 313 313 313 313 313 313 313 315 317 317 317 318 318 318 317 316 314 312 312 310 309 310 310 310 311 315 320 323 327 330 332 333 333 332 331 328 323 318 316 314 313 312 312 312 312 313 312 313 313 312 311 310 309 308 307 307 307 308
339 336 336 334 332 331 328 327 326 323 321 320 319 317 315 314 314 314 314 314 314 314 314 313 313 313 313 313 313 313 313 314 314 313 314 315 317 317 318 319 319 319 319 317 314 313 311 310 309 310 310 310 313 318 322 324 328 330 331 331 331 331 328 325 321 318 317 315 313 312 312 312 312 312 312 312 311 311 309 308 307 307 307 308 309
338 336 335 334 332 331 329 328 326 323 322 323 323 321 319 317 316 315 315 315 315 315 315 314 315 315 314 313 314 314 314 313 313 313 313 313 315 316 317 319 319 320 320 320 318 315 313 310 309 310 310 310 312 315 320 323 325 328 331 332 333 332 329 328 326 321 318 316 313 312 312 312 312 311 312 312 311 310 309 308 307 307 308 309 309
339 338 337 335 333 329 328 327 325 323 324 324 325 325 323 323 322 321 321 320 319 320 320 319 318 318 318 318 319 320 321 321 318 314 313 313 314 314 315 317 319 320 321 321 320 318 315 313 310 309 309 310 311 315 319 323 326 329 332 332 333 331 328 329 329 324 319 314 312 311 311 311 311 311 311 311 310 309 308 308 307 307 308 309 309
340 340 339 338 334 332 333 333 329 326 325 325 326 326 327 328 328 328 327 326 326 327 327 326 325 325 325 326 326 327 328 329 327 321 317 315 315 315 315 315 317 319 320 320 321 320 317 316 312 309 309 309 311 316 319 323 325 326 327 328 329 328 326 327 325 322 318 313 310 310 310 310 310 311 311 310 310 308 308 308 307 308 308 309 310
340 341 341 340 338 337 339 339 336 333 330 327 326 326 328 330 331 331 329 329 330 330 331 330 330 330 330 331 331 329 329 331 332 328 326 324 319 318 317 316 315 317 320 320 320 321 319 317 316 312 309 308 310 312 316 321 323 322 322 326 330 328 327 326 322 320 318 313 309 309 309 309 310 311 311 311 310 308 308 308 307 308 309 310 312
341 341 342 341 341 341 341 341 340 339 337 334 329 327 327 329 331 331 331 331 331 331 332 331 331 333 333 333 332 330 330 333 334 331 332 331 327 323 320 318 316 315 318 319 319 320 321 319 317 315 314 316 315 312 315 322 326 326 322 327 332 330 329 329 326 323 320 315 310 309 309 309 310 310 311 311 309 308 308 307 308 309 311 312 314
341 341 342 342 342 341 341 341 341 340 340 339 335 331 329 331 332 332 332 332 331 332 332 333 333 333 333 332 331 331 332 333 334 334 333 333 332 329 324 321 317 315 316 319 319 319 322 320 319 321 323 326 326 321 320 324 329 331 326 326 332 330 329 330 328 325 322 318 312 310 310 310 310 310 311 311 308 308 308 308 308 310 312 314 315
342 342 342 342 342 342 341 341 341 340 340 339 339 337 335 336 336 335 335 334 334 332 331 333 334 332 332 333 332 333 333 333 334 333 333 332 333 332 330 326 320 316 316 318 319 318 321 322 322 327 331 332 332 331 329 328 332 334 330 329 332 331 331 330 329 328 325 320 315 312 311 311 311 311 311 310 308 308 308 309 310 311 314 315 317
342 342 342 342 342 342 341 341 341 340 340 339 339 339 338 338 337 337 337 336 336 333 332 334 335 333 333 333 333 334 334 334 333 333 332 332 333 333 332 331 324 318 317 319 322 321 319 321 323 328 334 334 333 334 332 332 333 334 331 330 333 332 332 332 330 328 325 322 319 315 314 312 311 311 310 308 308 308 308 310 312 314 316 317 318
342 342 341 342 342 341 340 340 339 338 338 338 338 339 338 337 337 338 337 337 337 335 334 335 335 334 334 333 333 334 334 334 334 333 333 334 334 333 333 333 328 321 320 322 327 328 322 321 322 327 334 334 333 333 332 332 332 333 332 330 332 333 331 331 329 327 326 325 324 321 317 314 312 310 309 308 307 308 310 312 314 316 317 318 320
341 341 341 341 340 339 339 338 338 338 338 338 338 338 337 337 337 337 336 337 337 336 336 335 335 335 335 334 333 333 333 333 333 333 333 334 334 334 333 333 331 327 325 324 326 330 328 324 322 324 332 334 333 333 332 332 332 333 333 330 332 333 332 331 329 328 326 326 327 325 319 313 311 310 308 308 308 309 312 314 316 317 319 320 321
340 341 340 340 339 338 338 337 336 337 337 337 337 337 337 336 336 335 335 336 336 335 335 333 334 335 335 334 333 333 333 333 333 332 332 333 333 334 334 333 332 331 330 327 326 328 329 329 326 326 332 335 333 332 332 332 332 333 332 331 333 333 332 331 329 328 327 328 328 328 322 313 309 309 308 308 309 311 314 315 317 319 321 322 322
339 339 339 338 337 337 337 336 336 337 337 336 337 337 336 335 334 334 334 334 333 332 332 331 332 333 334 333 333 332 333 333 332 332 332 332 333 333 333 333 333 332 331 330 329 328 328 330 330 329 333 334 333 332 331 332 332 332 331 331 332 331 332 331 329 329 330 330 328 329 327 316 309 309 309 310 311 313 315 316 318 321 323 323 323
339 339 338 338 336 336 336 335 335 336 336 336 336 335 334 333 333 333 333 332 331 330 331 331 331 332 333 333 332 331 331 332 331 331 332 332 332 332 332 332 333 333 332 331 330 329 328 329 330 330 332 334 334 332 331 331 332 332 331 332 332 332 332 331 330 330 330 330 328 329 326 315 310 310 311 312 313 315 316 317 319 323 324 324 323
339 339 338 337 336 335 335 334 334 334 335 335 334 334 334 333 332 333 332 331 331 332 332 333 333 334 334 333 332 331 330 330 330 330 330 331 331 332 332 332 332 332 332 331 330 330 329 330 329 328 330 333 333 333 332 331 331 332 332 332 332 332 332 331 331 330 330 330 329 329 325 316 312 312 313 313 315 317 318 319 321 324 326 326 325
340 340 339 337 335 334 334 333 333 333 334 335 334 334 334 332 332 333 333 333 333 334 334 335 335 334 334 334 333 332 331 330 330 331 331 329 329 330 332 332 332 331 331 330 330 330 330 330 329 327 328 331 333 333 332 331 331 332 332 332 332 331 332 331 331 331 330 330 329 329 328 324 317 313 314 316 318 320 320 321 323 326 327 327 326
339 339 338 337 335 334 334 334 335 334 335 335 335 335 333 332 332 334 335 334 333 334 335 335 334 334 334 335 335 334 332 331 331 331 331 329 329 329 331 332 331 331 330 329 330 329 329 330 330 327 325 329 333 333 332 331 331 332 332 332 331 330 331 331 330 330 330 330 329 328 329 329 324 317 318 321 321 321 322 323 325 327 328 328 327
339 338 337 336 336 335 335 336 337 336 336 336 336 335 334 334 334 335 337 336 331 331 333 333 332 332 333 334 335 335 334 333 331 331 331 330 329 329 330 330 330 330 329 329 329 329 330 330 330 329 325 326 331 332 331 331 332 332 332 332 331 329 329 330 330 330 330 329 329 329 328 329 329 326 325 327 325 323 323 324 325 326 327 328 328
340 339 338 336 335 336 336 337 338 337 337 337 336 336 336 336 335 335 338 338 331 328 330 332 332 330 330 333 335 335 334 334 333 332 331 330 329 328 329 329 330 330 329 329 328 327 328 329 329 329 326 324 328 331 330 331 332 332 332 331 330 328 327 327 329 329 330 330 329 329 328 328 329 330 329 329 328 327 326 324 325 326 326 327 327
341 341 341 339 338 338 339 338 338 338 338 338 337 337 337 336 335 335 337 338 337 333 330 331 334 332 330 332 333 334 334 334 334 333 333 332 331 329 329 329 330 330 329 328 328 326 326 328 329 329 327 324 325 329 331 331 331 331 331 331 330 330 328 326 328 329 330 330 329 329 328 328 329 330 330 330 329 328 328 326 325 325 324 325 325
341 341 341 341 340 340 340 339 339 339 339 338 338 338 338 337 336 334 336 338 339 337 332 330 334 333 331 331 332 334 334 334 334 334 333 332 331 331 329 330 330 330 329 328 328 327 326 327 329 329 329 328 327 329 331 331 331 331 331 331 331 331 329 327 327 329 329 329 329 329 328 328 328 329 330 330 329 328 328 327 326 324 322 322 323
341 341 340 341 340 340 340 339 339 340 339 339 338 338 338 338 338 337 337 338 338 337 335 334 335 332 329 331 332 333 334 334 334 333 332 332 332 331 330 330 330 330 329 328 327 328 327 327 328 330 331 331 330 330 330 331 332 332 331 331 331 331 330 329 327 328 329 329 329 328 328 328 328 328 329 329 329 328 328 327 327 324 321 321 323
340 341 340 340 340 340 340 339 338 337 337 337 338 338 338 338 339 338 338 337 337 338 338 337 336 334 331 331 333 333 333 333 333 333 332 332 332 332 331 330 330 330 330 329 328 329 328 327 328 329 330 331 331 331 330 330 331 332 332 331 331 331 330 330 329 328 329 329 329 329 328 328 328 328 328 329 329 328 328 328 327 326 323 322 323
340 340 340 340 340 339 338 337 337 336 336 336 336 337 337 338 338 338 337 337 337 337 338 337 336 335 333 333 333 333 333 333 333 333 333 332 332 333 333 331 330 330 330 330 330 330 329 328 328 329 330 330 330 331 331 330 330 331 332 331 331 330 331 331 329 328 328 329 329 329 329 328 329 328 328 329 330 329 328 328 328 327 326 325 323
339 339 338 338 338 337 337 337 337 337 337 337 335 335 337 337 337 336 336 336 336 335 335 335 335 335 335 334 333 333 332 332 332 333 333 333 333 333 332 332 332 331 331 330 330 330 330 329 329 329 330 330 329 329 329 329 329 330 330 330 330 331 331 330 329 327 328 330 329 329 329 329 329 328 328 329 330 330 328 327 328 328 327 327 324
337 337 337 337 336 336 336 336 337 338 338 337 336 335 336 336 336 336 336 336 336 336 335 336 337 337 337 336 334 333 332 332 332 332 332 333 333 333 332 332 332 332 331 331 331 331 331 331 330 330 330 329 329 328 328 327 328 328 329 329 329 330 330 329 329 328 328 329 330 330 330 329 330 329 328 329 330 330 328 327 328 329 328 327 325
335 335 336 336 335 335 335 335 336 337 336 336 337 336 336 336 336 336 337 337 337 337 337 337 337 337 336 336 335 333 333 332 333 333 333 333 333 333 333 333 333 332 332 332 331 330 331 331 330 330 330 329 329 329 328 327 326 327 328 328 327 328 329 328 329 329 329 329 330 330 330 330 330 329 329 329 330 329 328 328 328 329 328 327 326
332 333 334 335 335 335 335 335 335 335 334 334 335 335 335 335 336 336 337 337 337 337 338 337 337 336 336 336 335 335 335 333 332 333 334 334 333 333 333 333 333 333 333 332 332 331 331 330 330 330 330 330 330 329 329 328 326 326 327 327 327 328 328 329 329 329 329 329 329 330 330 330 330 330 329 330 329 329 329 328 328 328 328 327 327
329 330 332 332 333 333 333 334 335 335 335 334 334 335 335 334 335 336 336 337 337 337 337 337 337 336 336 336 335 335 335 333 332 333 334 333 333 332 332 333 332 332 333 332 332 332 331 331 331 331 330 330 330 330 330 329 328 327 327 327 327 328 329 329 329 329 329 329 329 329 329 330 330 330 330 329 329 329 328 328 328 328 328 328 327
327 328 329 329 329 329 330 330 332 333 334 334 334 334 334 333 333 334 335 336 336 336 336 336 337 336 336 336 336 336 335 334 334 334 333 332 333 333 333 333 332 332 333 332 333 332 332 332 332 332 331 330 330 330 330 330 330 329 328 327 327 328 330 330 329 329 329 329 329 329 329 329 330 330 330 329 329 329 328 328 328 328 328 328 328
325 326 326 325 325 325 325 325 326 328 329 330 331 332 332 331 330 331 333 334 334 335 335 335 335 335 335 335 335 335 334 334 334 334 333 333 333 334 334 333 332 332 332 332 332 332 332 332 332 332 332 331 330 330 331 331 331 330 329 327 327 328 329 330 330 329 330 329 328 329 329 329 329 329 329 329 329 329 328 328 328 328 328 328 328
323 323 323 322 322 322 322 322 322 323 324 325 326 327 328 328 328 328 329 330 330 331 332 332 333 333 333 333 333 333 332 332 332 333 333 333 333 333 333 333 332 332 332 332 332 332 331 331 331 332 332 332 331 330 330 331 331 331 330 329 328 328 328 328 328 329 330 329 328 328 328 329 329 329 329 329 329 329 328 328 328 328 328 327 327
Wind_Speed
15 16 18 18 16 16 17 18 18 16 15 16 16 15 15 14 12 12 13 14 14 14 13 15 15 17 18 17 17 17 18 18 18 19 19 19 18 18 18 18 17 17 16 15 14 13 13 14 14 14 14 14 14 14 14 14 15 16 17 18 18 19 18 17 15 14 13 11 10 10 10 10 11 11 12 13 13 14 15 16 17 17 18 19 19
15 17 18 19 17 16 17 18 17 16 15 15 16 15 14 13 12 12 12 13 14 14 13 14 15 16 17 17 17 17 18 18 17 18 18 18 18 17 17 17 17 16 15 14 14 13 13 13 13 13 13 13 13 13 14 15 16 17 18 19 20 20 20 19 17 15 13 10 8 9 10 10 11 11 12 12 12 14 17 18 17 18 19 19 19
14 19 20 20 17 16 17 18 17 16 15 15 15 14 14 13 11 11 12 13 13 13 13 14 15 16 17 17 16 17 18 17 17 17 17 17 17 17 17 17 16 16 15 14 13 13 12 12 13 13 13 13 13 14 15 16 17 18 19 19 19 20 20 20 18 15 14 13 11 9 10 10 10 11 11 12 13 17 18 18 18 19 19 19 20
12 20 22 21 18 17 17 17 17 16 15 15 15 14 13 12 11 11 11 12 13 13 13 14 15 15 16 16 16 16 17 17 16 16 17 16 16 17 17 16 15 15 14 14 13 13 12 12 12 12 13 13 14 15 15 16 16 17 19 20 20 21 21 20 19 16 14 15 14 11 10 11 13 13 13 14 17 19 19 18 19 20 19 19 19
13 20 21 21 19 17 17 17 16 16 15 15 14 13 13 12 11 10 10 10 11 13 13 13 14 15 15 15 15 16 16 16 16 16 16 15 15 16 16 15 14 14 13 13 13 12 12 11 11 11 12 13 13 14 14 14 14 16 19 21 21 20 20 20 19 17 15 14 14 12 12 15 17 16 16 17 18 18 19 20 20 20 20 20 20
12 19 21 21 20 18 17 16 16 15 15 14 13 13 12 12 11 9 9 9 10 13 13 13 13 14 14 14 15 15 15 15 15 15 15 14 14 14 14 14 13 13 12 12 12 11 11 10 9 9 11 11 11 11 11 12 14 18 21 21 19 18 17 17 17 16 14 11 12 11 12 16 18 17 16 16 17 17 19 19 20 20 19 19 19
9 18 21 20 20 18 17 16 16 15 14 13 13 12 12 11 10 8 8 8 9 12 13 13 13 13 13 13 14 14 14 14 14 14 14 13 13 12 12 12 12 12 11 11 11 10 9 8 7 7 9 10 10 10 12 15 19 22 23 21 20 17 17 16 15 14 11 8 9 9 12 16 18 18 15 15 17 17 18 18 19 18 18 18 18
9 21 21 20 20 18 17 16 15 14 13 13 12 11 11 11 10 8 7 7 8 11 12 13 12 12 12 12 13 13 13 13 13 13 13 12 11 11 10 9 9 10 9 9 8 7 7 6 6 8 10 11 11 12 16 22 24 24 22 20 19 17 16 15 15 14 11 7 5 6 14 17 18 17 14 16 17 17 17 17 18 17 18 18 18
13 21 20 19 18 17 16 15 14 14 13 12 11 11 11 10 9 7 6 6 7 10 12 12 12 11 11 12 12 12 12 11 11 12 12 11 10 9 8 8 7 8 8 7 6 5 5 5 7 10 12 13 14 15 20 25 26 24 21 19 19 19 16 14 13 12 10 7 5 10 15 17 18 17 16 16 16 16 16 16 17 17 17 18 17
15 18 16 17 17 17 16 15 14 13 13 12 11 11 10 9 8 6 5 5 7 9 11 11 11 11 11 11 11 11 11 10 10 10 11 10 9 7 7 6 6 7 8 7 7 6 6 7 8 10 13 14 16 18 22 25 25 23 21 19 19 19 16 14 11 9 8 8 10 13 16 17 18 17 16 15 15 14 14 15 16 16 16 17 17
16 15 14 14 15 16 16 15 14 14 13 12 11 10 9 8 7 6 5 5 7 9 10 10 10 10 11 11 10 10 10 10 9 9 9 9 8 7 7 6 6 7 7 7 8 8 8 8 8 10 13 15 18 20 23 24 25 23 21 20 18 17 15 12 10 7 6 8 12 15 16 16 16 16 15 14 14 13 13 14 14 14 16 17 16
14 13 13 13 14 15 15 15 14 14 13 12 11 10 8 7 6 6 6 6 8 8 10 10 9 10 11 11 10 10 10 9 8 8 9 8 7 7 7 7 7 7 7 7 8 9 8 8 9 11 12 14 18 21 24 25 25 23 21 19 18 16 14 11 9 7 6 9 12 14 15 15 15 14 13 13 13 12 12 13 12 14 15 15 14
11 10 10 13 14 14 15 15 15 14 13 12 10 9 8 7 6 7 7 8 8 9 9 9 9 9 10 10 10 10 9 9 8 7 8 7 7 7 7 7 7 8 7 7 8 9 9 8 9 10 10 13 18 22 26 26 25 23 21 19 17 15 12 8 7 9 11 12 13 14 14 13 13 13 12 11 11 10 11 11 11 12 13 13 13
10 8 11 15 15 14 16 16 15 14 13 12 10 10 9 8 8 9 9 9 9 9 9 9 9 9 9 10 9 9 9 9 8 7 7 6 7 8 8 7 7 7 7 7 8 9 9 9 9 10 10 13 19 24 26 25 23 22 21 19 17 14 10 5 5 10 13 14 14 13 12 11 11 11 10 10 9 9 9 9 10 11 11 12 12
8 9 15 17 16 16 17 16 16 14 13 13 12 11 11 11 10 10 10 9 10 9 9 9 9 9 9 9 9 8 8 9 9 8 7 6 7 8 8 8 8 7 7 7 7 8 9 9 9 9 9 13 18 23 25 24 22 21 20 19 16 13 9 5 5 10 12 13 13 11 10 9 9 8 8 8 8 7 8 8 8 9 10 10 10
7 11 17 18 16 17 17 17 16 15 14 14 14 13 13 12 12 11 10 9 10 9 9 10 10 9 8 9 9 8 7 8 9 10 8 6 6 8 8 8 8 7 7 7 7 7 8 9 9 9 9 13 18 22 25 24 22 21 20 19 16 12 8 4 5 9 11 12 12 10 9 8 7 6 6 6 6 6 7 7 7 8 8 8 9
11 14 17 17 17 18 18 18 17 16 16 15 15 14 14 13 13 12 11 10 9 9 9 10 10 10 9 8 9 8 7 7 8 10 9 8 6 7 8 8 7 7 7 6 6 6 7 8 8 8 8 12 17 21 24 23 21 21 19 18 15 12 8 5 6 9 10 10 10 9 8 6 5 4 4 5 5 5 6 6 6 6 7 7 7
14 17 18 16 16 17 17 18 17 17 16 16 15 15 14 14 13 12 12 11 10 10 9 10 11 10 9 9 9 9 8 6 7 8 9 9 8 7 8 8 7 7 7 6 6 6 6 7 7 7 8 11 16 20 22 22 21 21 19 17 15 12 8 6 6 8 9 8 7 7 7 5 4 4 3 3 3 4 4 5 4 5 6 6 5
17 20 18 16 16 16 17 17 16 16 16 16 16 15 15 14 14 13 12 12 12 11 10 11 10 10 10 9 9 9 8 7 6 6 7 8 8 8 8 8 8 7 6 6 6 5 5 6 6 7 7 10 15 17 18 19 20 19 18 16 14 10 7 6 5 5 5 6 6 6 6 5 4 4 3 3 3 3 3 3 3 4 5 5 4
19 20 18 17 16 16 17 16 16 16 16 16 16 16 16 15 14 13 13 13 12 12 12 11 10 9 10 9 9 9 8 7 6 5 4 5 7 8 8 8 8 7 6 6 6 6 5 6 6 6 6 8 12 14 16 18 18 17 17 14 12 9 6 4 3 3 3 3 4 5 5 4 5 4 3 3 3 2 2 2 2 3 4 4 5
18 19 19 18 16 16 16 16 16 16 16 16 16 16 16 16 15 14 14 13 13 13 12 11 9 9 9 9 9 8 7 7 7 6 5 5 5 6 7 8 7 7 6 6 6 6 6 6 7 7 7 7 10 13 16 18 17 17 16 14 11 9 6 4 3 2 1 2 4 4 4 4 4 4 4 3 3 2 2 3 3 3 4 4 5
20 19 18 17 17 16 15 15 16 16 16 16 16 16 16 16 15 14 14 14 14 12 11 10 10 10 9 8 7 6 5 5 5 5 6 6 5 6 7 8 8 7 7 6 6 7 7 7 8 8 7 7 9 13 15 16 16 16 16 14 10 7 5 4 5 4 3 3 3 4 4 5 5 4 4 3 3 2 2 2 3 3 4 4 4
22 21 18 18 17 16 14 14 15 15 15 15 15 15 15 15 14 13 13 13 12 10 9 9 9 8 7 6 5 6 4 3 3 4 5 5 5 5 5 8 9 9 8 7 7 7 8 8 8 8 8 8 9 12 14 12 11 12 11 10 6 3 3 3 5 3 2 2 4 5 4 5 5 5 4 3 3 2 1 2 2 3 3 4 5
22 22 20 18 16 16 15 14 14 14 14 13 14 14 14 13 13 13 13 12 11 10 9 8 8 7 7 6 6 5 5 5 4 5 5 6 5 4 5 6 9 10 9 8 8 9 9 8 8 9 9 9 9 11 10 8 4 4 7 8 5 2 5 6 6 3 3 3 4 5 5 5 5 5 5 4 3 3 2 2 3 3 4 6 6
22 23 21 17 16 16 15 13 12 12 13 13 13 13 14 12 11 12 12 12 11 10 10 9 9 7 6 6 5 4 5 5 5 6 5 6 5 5 5 6 8 10 11 10 10 10 9 8 9 9 9 8 8 8 8 6 2 1 4 8 5 4 6 8 8 5 5 4 4 4 5 5 6 6 6 5 3 3 3 3 3 4 5 6 6
21 21 19 16 16 15 14 13 12 12 11 11 12 12 12 11 10 10 10 10 9 8 8 8 8 6 5 5 5 4 4 5 6 7 7 6 6 5 6 6 7 10 12 12 11 11 10 9 9 9 8 7 7 7 6 3 3 2 2 5 5 5 6 9 10 8 7 6 6 5 5 5 6 6 6 5 4 4 3 3 4 5 5 5 5
18 18 17 16 15 13 14 14 12 11 10 10 10 9 10 10 9 8 7 7 8 8 7 7 7 5 5 5 5 4 5 5 7 8 8 8 7 7 8 7 7 8 11 12 12 11 11 11 10 8 7 6 5 4 4 1 2 3 5 3 4 7 8 10 11 11 10 8 8 7 6 6 6 7 6 5 4 4 4 4 4 4 4 4 5
17 17 17 15 14 12 13 12 10 9 9 9 8 8 8 8 9 8 8 6 7 8 7 6 6 5 4 4 6 6 6 6 7 8 9 9 8 8 10 9 7 7 10 12 12 11 12 12 12 9 7 6 5 3 3 1 1 6 9 5 5 9 11 12 14 12 10 8 8 8 8 7 6 7 6 5 4 4 3 3 3 4 4 4 5
16 16 16 14 13 12 12 11 10 10 9 8 8 8 7 7 8 8 7 6 6 7 6 4 4 4 5 6 7 8 8 8 8 9 9 10 10 10 10 10 9 8 11 13 11 11 12 12 12 11 8 7 7 4 4 6 8 9 10 8 6 10 12 13 13 12 10 7 7 8 8 8 7 6 5 5 4 5 4 4 3 4 4 4 5
15 15 15 13 12 12 12 11 11 11 10 9 8 8 7 7 7 6 6 6 6 6 4 3 4 5 6 6 7 8 8 8 9 10 10 10 11 11 11 11 10 10 12 12 11 11 11 10 12 12 10 9 8 7 7 11 14 14 12 10 9 11 14 14 13 13 10 8 6 7 7 7 7 6 5 5 5 5 4 4 4 3 4 4 5
14 15 15 13 13 12 11 10 11 12 10 10 9 9 9 8 6 5 5 5 5 4 4 3 3 4 6 6 6 7 7 9 10 10 10 10 12 12 12 12 11 12 13 12 11 12 11 11 12 12 12 11 10 11 12 13 16 16 15 13 12 12 14 15 15 12 9 9 8 8 8 7 7 6 5 5 5 5 5 4 4 4 4 5 6
14 15 15 14 13 12 12 11 11 11 10 10 9 9 9 7 6 5 5 4 3 3 3 2 2 3 4 6 6 7 8 9 10 10 11 11 12 13 13 13 13 13 14 13 13 13 12 13 14 14 15 14 12 14 14 15 15 15 15 14 12 11 11 13 13 11 10 11 11 10 10 8 7 6 5 5 5 6 5 5 4 4 5 6 6
15 15 15 13 12 12 12 11 11 10 10 9 8 8 8 7 6 4 4 4 3 2 1 1 2 3 3 4 6 7 8 9 10 11 12 12 12 13 13 14 14 14 15 15 14 14 14 15 16 16 17 17 16 16 15 16 15 13 13 14 12 10 10 11 13 12 11 12 13 12 10 8 7 7 6 5 6 6 5 5 5 5 6 6 6
15 15 14 13 13 12 12 11 11 10 9 8 7 7 6 6 5 4 4 4 2 2 0 1 2 2 2 4 6 7 7 8 10 11 12 13 13 13 13 12 13 14 15 15 15 15 15 17 18 18 18 18 18 18 18 19 16 12 13 13 12 12 11 12 14 13 13 15 14 12 9 7 7 7 6 6 6 6 5 5 5 5 5 6 6
14 13 12 13 13 12 11 11 10 10 9 8 6 5 4 5 5 3 4 4 2 1 2 1 2 2 3 4 5 6 6 8 10 10 12 14 14 14 14 13 13 14 15 15 16 16 17 18 19 19 18 19 20 20 20 21 18 14 15 16 14 15 14 12 14 15 14 15 14 12 9 7 7 7 6 6 6 6 5 5 5 5 6 6 6
11 11 11 12 12 12 11 10 9 9 8 7 6 5 4 3 4 3 3 4 2 3 3 2 2 4 4 4 5 6 6 8 10 11 12 13 14 14 15 16 15 15 15 15 16 18 18 18 19 18 18 19 21 22 21 21 20 17 18 19 18 17 16 12 11 15 16 14 14 13 11 9 8 8 7 6 6 6 6 6 5 6 6 6 6
11 10 11 11 10 11 10 9 8 8 7 6 6 5 5 3 3 4 4 4 3 4 5 4 4 5 6 6 5 6 7 9 10 12 12 13 13 13 15 16 16 15 15 15 16 17 18 19 19 19 19 20 22 23 22 20 22 21 18 18 19 17 16 14 11 12 15 15 15 15 13 11 10 10 8 7 7 7 7 7 7 7 7 7 7
12 11 11 10 10 9 8 8 7 6 6 6 5 5 6 5 5 5 5 5 5 4 6 7 8 7 8 9 8 8 9 10 11 12 13 13 13 13 14 16 16 17 16 16 16 16 17 19 19 19 19 21 22 23 23 22 24 22 18 17 18 17 17 18 16 13 12 16 16 16 15 12 11 11 10 9 9 8 8 8 8 8 8 9 8
13 12 11 10 10 8 7 7 6 5 5 4 4 4 4 5 6 6 6 6 6 6 5 7 9 9 9 10 10 10 11 11 12 13 13 13 13 13 14 16 17 18 18 17 17 17 17 18 18 19 19 21 22 22 24 25 26 23 20 20 18 18 18 18 19 18 15 14 14 15 16 13 12 13 12 10 10 9 8 9 9 9 9 9 10
14 12 12 11 10 8 7 6 6 6 5 5 4 3 4 4 6 6 6 7 7 7 7 7 10 11 11 11 11 11 12 13 13 13 13 14 14 14 14 16 18 19 19 19 18 17 17 18 19 19 19 21 22 23 24 24 24 22 22 21 19 20 21 19 19 19 18 15 14 16 17 14 13 13 12 11 11 10 9 9 9 9 9 10 10
13 12 12 11 11 9 7 6 5 5 5 5 5 4 5 5 6 6 6 7 7 5 6 9 10 9 10 11 11 10 12 13 13 13 14 14 14 14 14 16 18 20 20 19 19 18 17 18 19 19 21 22 22 23 24 22 22 22 22 21 22 22 21 20 18 19 21 18 14 17 18 16 15 14 13 12 12 12 10 10 10 10 11 11 11
13 12 12 12 12 10 9 7 6 5 5 6 6 6 6 7 7 7 7 7 6 3 4 6 6 7 7 9 10 10 11 12 12 13 14 14 14 14 15 15 17 19 21 20 20 19 19 19 20 21 22 24 23 23 23 23 23 23 22 21 22 22 22 21 19 18 21 21 17 18 21 19 17 16 15 14 14 13 11 12 12 12 12 12 12
10 10 10 10 10 10 8 7 6 5 5 6 8 8 8 7 7 6 6 6 6 5 7 8 7 7 7 7 8 9 10 12 13 15 15 14 14 14 15 15 17 19 20 21 21 21 21 21 21 23 23 24 24 23 24 24 25 24 22 22 21 21 21 22 22 20 20 23 21 20 22 21 19 18 17 17 16 14 13 13 13 12 13 13 13
10 8 7 7 8 8 7 7 6 6 6 6 8 9 8 7 6 4 4 5 5 6 7 8 8 7 5 5 6 8 10 12 14 15 15 15 14 14 14 15 16 18 19 21 22 23 23 22 23 24 25 25 25 25 24 24 26 26 23 22 19 17 20 22 24 23 21 24 25 23 23 22 21 21 20 19 17 17 15 13 13 13 13 14 13
9 8 6 6 8 8 7 8 7 6 6 6 6 8 8 7 6 5 4 4 4 4 5 6 7 8 8 6 5 6 8 10 12 14 15 15 15 15 15 15 16 16 17 19 21 22 23 24 24 26 26 27 27 26 26 25 27 28 26 24 19 17 21 22 21 20 21 26 27 25 24 23 24 23 23 21 18 18 16 13 13 13 14 15 15
6 7 7 6 8 8 7 9 8 4 4 5 5 6 7 7 6 5 4 4 5 5 6 7 8 9 9 11 9 8 7 8 10 13 14 15 16 17 17 16 17 17 17 18 20 22 24 24 25 26 27 27 27 28 28 28 27 28 28 28 25 22 23 21 19 18 19 24 28 27 25 25 25 24 23 22 19 18 16 15 14 15 15 15 16
6 6 6 5 8 8 7 8 9 6 6 8 8 8 8 7 6 4 4 5 6 7 8 8 9 9 8 10 12 11 8 8 11 13 14 15 18 19 19 18 18 18 18 19 20 21 23 24 25 26 27 27 27 29 29 28 28 29 29 29 29 29 26 22 20 18 16 20 26 28 27 26 26 25 23 22 20 19 19 18 18 17 16 16 17
5 4 3 4 5 6 6 7 9 9 9 11 11 10 9 9 8 6 5 5 5 6 8 8 9 9 8 10 12 13 11 9 11 13 13 15 18 19 20 20 20 19 20 20 21 21 23 25 26 27 28 28 28 29 29 29 30 31 30 30 31 32 31 26 23 20 18 18 20 25 27 27 27 27 25 23 20 20 20 21 21 20 18 18 19
3 1 1 2 2 3 3 3 7 10 11 12 12 12 11 11 10 9 8 7 7 6 7 8 8 8 9 11 12 12 12 12 11 11 12 14 17 18 20 21 21 21 21 21 22 22 23 25 28 29 29 29 29 29 29 30 31 32 32 31 31 33 33 31 27 24 22 21 19 21 25 27 29 28 26 24 21 20 21 22 23 22 20 20 21
3 2 1 2 4 6 6 5 2 3 6 8 9 11 11 10 9 9 9 9 9 9 7 8 9 9 9 10 10 10 12 13 14 12 11 12 14 16 18 20 20 22 22 22 23 23 23 25 27 29 29 30 29 30 31 31 32 33 33 33 32 33 34 33 32 29 27 25 22 21 22 26 29 29 26 25 23 22 23 24 25 23 21 22 22
4 3 5 8 11 12 11 10 10 8 5 2 3 5 6 7 8 8 9 10 11 11 10 10 11 11 10 11 11 12 13 13 14 15 13 12 13 15 16 18 19 21 23 24 25 25 25 25 26 27 29 30 30 31 32 32 32 34 34 34 34 34 35 34 33 32 31 29 26 23 22 23 26 27 27 27 25 23 24 26 26 25 24 23 24
Wind_Direction
168 168 164 158 159 159 151 148 145 146 146 144 141 135 125 116 108 96 95 99 96 94 88 85 86 88 90 91 92 92 92 90 89 86 85 84 85 87 86 87 88 89 88 88 88 87 86 86 87 88 90 91 92 94 93 92 90 90 89 88 85 82 79 78 78 76 76 76 75 76 81 80 71 68 66 64 59 60 75 81 80 81 83 84 81
168 170 167 156 159 159 151 147 146 146 146 146 144 138 126 118 111 98 95 101 100 98 93 88 88 90 92 93 92 92 93 91 89 87 86 85 86 87 87 87 88 88 88 89 89 87 85 84 86 89 90 91 93 91 91 92 91 93 91 88 85 83 80 78 75 74 70 66 63 70 78 79 71 66 65 64 62 70 82 84 82 82 83 84 84
166 167 165 155 156 156 150 147 146 146 147 149 146 138 128 122 114 100 94 101 104 101 97 93 91 92 94 95 94 94 95 94 92 89 87 87 87 88 87 86 86 86 87 88 88 87 84 83 85 89 92 93 92 90 89 91 94 95 91 86 84 83 80 75 70 69 70 67 62 73 81 79 77 73 72 73 79 85 86 85 84 83 83 85 86
156 165 164 152 152 151 149 146 145 147 148 150 146 139 130 126 116 102 94 99 106 105 101 96 94 94 96 97 96 95 96 97 94 92 89 88 87 87 86 85 85 84 85 85 85 86 86 84 84 88 93 94 93 91 91 92 96 95 90 85 82 79 76 72 66 59 61 65 60 68 83 81 83 81 81 83 88 89 86 86 87 85 84 85 84
143 161 163 150 148 148 147 145 145 147 148 149 146 140 133 129 118 103 93 96 106 107 103 99 98 96 97 100 98 97 98 98 97 94 91 89 88 88 87 85 85 84 84 83 83 83 85 87 87 88 91 94 95 94 92 92 94 96 92 88 83 79 77 73 68 59 53 56 48 54 80 85 85 84 85 87 90 89 85 85 84 85 85 84 84
143 161 162 150 147 145 145 143 144 145 147 147 145 142 135 131 118 105 93 91 105 108 106 102 100 99 101 103 101 100 101 101 99 97 94 92 89 89 90 88 87 85 84 84 84 82 82 85 89 91 92 95 95 95 91 90 96 101 98 93 90 86 83 76 72 68 60 53 33 40 82 92 92 90 89 91 91 88 86 84 83 83 84 85 85
157 165 160 151 147 143 143 140 142 143 145 146 144 142 136 132 119 108 94 88 104 111 109 105 102 103 104 106 105 104 104 104 101 99 96 93 90 89 90 91 90 87 85 85 86 87 88 90 96 99 99 99 97 96 93 97 104 106 103 98 94 88 86 85 86 84 79 67 24 35 92 99 98 96 94 96 92 90 89 88 86 84 83 85 84
162 165 157 151 146 139 139 137 138 139 141 143 142 141 136 131 122 112 96 89 107 115 114 109 105 103 105 108 110 108 107 107 105 101 97 93 91 90 88 88 88 88 87 86 88 91 94 97 100 101 101 102 101 100 101 106 109 108 104 98 92 86 87 95 104 107 107 96 39 71 102 102 102 100 97 97 93 91 89 88 87 84 83 82 81
150 155 152 149 142 135 133 132 133 134 137 138 140 138 135 131 123 116 100 96 112 121 118 113 109 105 106 110 115 114 109 107 106 102 97 94 91 89 88 86 84 84 83 83 84 87 90 90 90 95 99 102 102 103 110 112 110 107 104 98 91 88 91 103 113 115 114 109 94 104 108 106 105 101 98 95 92 90 87 88 87 82 79 78 77
133 142 146 145 137 131 128 128 130 130 133 134 137 136 134 131 126 120 107 108 120 127 123 118 112 108 107 109 118 120 116 109 106 103 98 97 92 87 87 86 80 74 74 75 81 85 89 91 89 95 101 102 103 108 116 115 109 107 104 99 97 95 97 106 113 109 102 100 101 106 107 105 102 100 99 96 92 89 87 87 86 81 77 75 73
117 124 132 139 134 127 125 127 128 129 131 131 134 133 134 133 130 126 120 121 127 132 127 124 118 113 110 109 117 125 125 116 108 104 100 98 96 93 93 93 86 76 73 73 81 87 88 92 94 100 103 104 108 114 119 117 111 108 104 101 99 101 107 114 122 122 106 101 102 106 107 105 103 102 101 98 93 88 86 85 82 79 75 72 71
112 112 120 136 131 126 125 127 128 128 129 129 132 133 136 137 139 135 130 128 129 133 130 129 126 120 115 113 119 126 131 124 116 109 105 103 98 96 94 95 92 84 79 77 83 87 88 91 97 102 103 107 113 118 120 117 112 107 104 103 100 101 109 116 128 139 124 110 108 110 111 109 108 105 102 99 95 88 85 84 79 75 73 71 71
118 117 124 137 130 126 125 126 126 125 126 129 133 134 138 141 143 139 131 128 127 132 132 133 133 128 122 120 122 125 128 126 123 119 115 111 102 98 96 95 92 88 82 79 84 87 91 93 99 103 103 112 120 122 120 116 111 109 106 107 107 105 106 106 120 130 124 117 115 116 115 114 112 110 107 101 96 90 86 84 79 76 73 72 72
112 120 133 138 131 126 123 124 123 123 127 128 132 134 138 141 139 136 130 127 129 135 136 135 136 135 131 127 126 123 124 123 122 124 125 122 109 103 101 101 97 93 86 81 85 87 93 97 102 106 106 117 126 124 120 116 113 113 113 113 113 112 116 126 127 120 118 119 119 120 118 115 113 110 108 103 97 90 87 83 80 77 72 71 71
102 118 132 138 132 127 124 123 124 125 129 128 131 133 136 136 132 130 127 128 132 138 137 135 136 137 138 135 131 125 121 118 118 124 136 139 119 110 110 110 106 100 93 88 87 88 96 102 106 110 110 120 131 129 121 118 117 116 116 116 116 118 128 144 128 117 119 122 124 123 120 116 112 112 109 104 99 92 88 83 76 73 70 69 68
119 138 138 139 133 129 128 126 128 129 129 130 132 133 133 131 129 128 127 130 132 136 136 135 139 139 140 141 137 130 123 118 119 129 144 151 131 120 119 118 115 109 104 97 93 94 100 107 112 114 113 122 133 134 126 123 122 119 119 120 121 124 131 145 132 124 129 131 130 127 124 121 119 119 113 106 102 94 89 82 74 71 69 67 66
141 153 146 141 137 136 135 132 133 131 131 132 133 133 132 131 130 132 132 135 132 133 135 137 143 141 141 145 144 139 134 130 128 137 149 155 148 137 132 129 126 120 115 108 103 102 106 112 117 119 117 124 135 138 134 129 126 126 126 126 126 129 139 166 154 134 133 132 131 130 130 131 129 128 119 110 101 90 83 78 74 71 68 66 68
150 153 146 143 145 142 138 136 136 134 134 134 134 133 133 134 135 138 140 140 136 135 139 140 142 140 140 145 148 146 145 146 141 147 157 160 161 155 147 143 139 134 128 123 117 112 112 118 120 125 124 127 138 142 141 137 133 130 129 129 130 136 153 170 154 134 132 135 140 143 146 149 146 151 144 121 103 89 81 77 72 70 74 73 72
154 150 144 150 152 145 142 140 139 136 136 134 134 135 136 139 139 143 144 142 142 143 145 141 139 136 136 142 147 149 151 158 158 160 163 167 172 170 163 157 152 146 140 139 133 124 119 125 128 132 132 133 143 149 148 145 139 133 130 131 135 146 170 173 150 135 136 146 160 167 167 170 173 179 175 150 131 117 97 84 82 80 84 83 73
153 150 148 157 154 148 147 144 142 139 138 136 136 137 138 141 141 143 143 143 145 145 145 140 135 132 135 142 146 149 156 167 175 178 178 184 186 182 178 172 164 158 153 152 150 143 133 134 137 141 142 143 150 154 153 149 143 137 133 134 139 156 177 176 159 152 152 172 184 186 188 192 196 200 197 174 164 154 127 107 102 92 90 90 80
149 152 155 159 152 151 151 147 146 143 141 140 140 140 140 139 140 142 141 143 144 143 143 140 140 141 146 150 148 152 159 168 176 187 207 219 217 203 192 189 184 173 168 165 164 161 151 144 144 150 152 152 155 155 153 151 146 142 139 137 141 162 177 181 203 222 244 235 213 203 212 223 221 221 222 206 196 180 146 125 113 102 98 96 90
146 151 159 156 151 153 151 149 147 144 144 143 144 144 143 142 142 144 145 147 145 144 144 144 150 150 151 150 153 161 159 160 171 186 207 222 224 224 208 200 201 194 185 178 175 173 166 158 153 156 156 155 155 153 154 153 151 147 144 142 145 177 193 202 231 254 274 257 227 222 231 240 244 247 245 233 219 202 165 136 118 112 109 103 98
148 151 158 152 150 152 149 150 146 146 146 145 148 147 147 146 147 149 151 150 146 147 145 145 147 142 143 152 164 171 170 172 197 201 214 231 225 233 226 211 211 208 203 193 189 184 175 170 164 159 152 152 152 153 152 150 153 152 149 143 141 207 241 258 253 261 279 262 239 236 244 250 253 255 247 241 234 222 197 144 127 128 118 108 103
153 155 155 149 151 154 152 151 149 151 149 149 151 150 154 154 155 155 156 153 150 154 149 148 148 144 154 166 176 177 182 194 220 224 220 228 222 230 230 222 218 212 212 204 199 194 183 174 166 157 147 147 151 154 148 134 140 153 149 130 111 250 270 285 285 314 313 281 261 249 253 259 260 256 247 243 237 228 201 157 145 131 120 112 105
158 159 155 152 156 156 154 151 152 154 152 156 157 157 161 159 161 161 162 160 161 163 158 160 155 156 166 172 192 195 194 203 231 248 243 229 223 234 233 228 221 213 213 208 204 200 188 174 163 156 148 149 153 155 146 124 80 354 165 137 130 241 261 280 290 312 309 286 278 266 259 265 269 262 254 250 238 227 202 168 156 134 122 117 107
157 159 156 157 159 157 156 154 159 161 156 158 162 165 164 164 169 167 167 168 170 173 171 170 155 158 178 185 207 209 212 227 239 248 254 247 237 243 242 236 223 215 212 208 207 202 192 180 167 159 159 167 168 168 165 131 83 343 283 135 155 241 263 275 280 296 303 291 278 271 265 269 274 266 261 254 232 226 212 176 162 144 127 114 102
155 156 155 157 157 159 162 160 159 165 161 157 164 167 163 167 173 171 172 175 179 182 185 176 158 167 190 203 224 221 225 241 248 254 262 258 251 250 251 242 224 216 212 208 204 201 196 187 179 167 161 169 170 182 190 117 72 287 282 129 165 254 267 272 277 288 297 293 280 272 271 270 271 271 266 255 229 225 214 179 163 144 127 111 100
155 152 152 154 157 163 165 161 155 165 169 161 167 170 161 161 169 175 175 181 188 189 195 181 170 185 204 233 250 242 245 257 264 272 274 263 256 252 253 249 230 212 208 206 203 203 198 191 193 182 166 168 166 187 204 217 268 251 251 207 205 253 257 265 272 279 290 295 286 277 274 269 268 273 267 252 234 224 209 180 159 136 125 109 99
155 151 150 150 155 161 159 157 154 163 175 167 170 174 167 161 169 177 172 181 192 191 199 189 189 202 217 243 258 258 260 268 271 276 270 259 255 249 248 248 235 214 204 202 202 208 200 196 203 192 184 187 176 185 216 234 234 228 234 217 216 247 249 256 265 274 286 295 293 287 279 269 264 268 258 243 233 219 201 179 158 141 125 110 105
152 149 148 145 147 154 151 154 155 158 170 166 170 175 165 159 163 167 164 174 182 180 186 199 215 217 222 240 261 269 266 266 269 272 266 256 255 250 244 242 237 223 211 207 205 210 205 203 210 202 208 212 191 198 224 238 234 228 231 216 212 240 246 251 263 273 282 288 293 296 288 270 258 257 245 231 223 212 195 180 164 149 128 114 112
148 142 142 141 140 147 142 141 148 151 159 157 160 161 151 148 148 148 153 162 169 168 178 210 227 222 230 243 259 266 262 260 263 266 261 256 256 254 247 241 239 231 223 215 209 214 215 212 212 211 220 223 205 202 218 237 238 237 236 222 219 236 245 254 265 271 281 288 288 295 296 276 255 245 231 219 215 205 190 184 172 153 135 123 118
134 132 135 138 136 139 132 128 137 142 148 147 147 149 147 146 143 139 143 156 168 164 175 208 220 222 239 253 259 258 257 256 258 259 256 256 256 254 250 241 237 235 231 223 215 220 225 222 221 221 224 227 216 207 218 233 238 245 239 224 223 229 240 255 266 267 272 283 286 292 297 280 251 234 221 210 207 203 193 186 173 154 137 127 121
126 127 132 136 132 133 134 130 134 138 142 144 146 146 147 148 146 140 138 151 156 148 156 187 223 231 234 251 256 255 257 255 255 255 252 254 254 253 249 239 234 233 232 230 227 229 230 229 231 231 231 231 222 214 220 227 232 249 243 230 226 221 228 245 257 260 262 271 279 288 293 273 245 228 213 205 201 201 196 187 175 160 143 132 127
127 127 130 132 128 129 135 134 134 140 141 144 146 144 144 141 136 128 121 123 112 110 185 242 236 252 264 258 254 250 253 255 254 255 254 253 252 251 245 238 237 235 233 235 238 242 237 232 235 237 237 235 227 222 224 225 228 238 240 234 228 225 229 238 247 251 256 262 270 282 281 258 242 226 207 203 203 202 200 194 183 175 160 144 139
131 130 130 131 129 128 133 137 140 143 141 141 140 144 149 138 130 127 121 121 123 185 213 226 260 294 299 274 266 264 259 257 259 259 258 254 251 249 243 239 243 241 239 240 243 246 243 237 237 238 238 234 229 228 227 226 225 227 233 231 224 222 221 230 247 247 251 259 266 276 272 254 242 223 207 206 212 213 208 204 197 192 184 169 161
125 134 133 130 132 132 135 139 143 145 144 143 145 157 162 147 142 148 151 145 179 247 232 226 274 299 296 281 274 278 271 263 261 261 259 255 252 249 245 241 241 242 241 245 247 247 246 244 242 240 235 230 227 228 229 226 223 224 230 231 232 232 220 216 239 247 249 256 264 273 273 261 244 226 216 216 224 227 219 219 216 205 198 193 187
107 123 126 125 131 134 138 139 141 144 148 154 159 164 156 168 188 186 188 162 167 261 273 265 270 286 285 275 265 266 268 266 263 260 258 258 258 254 249 244 240 240 243 247 249 250 250 249 248 244 234 229 228 228 231 229 227 228 230 232 237 243 237 225 227 242 251 254 259 269 272 263 245 233 229 227 228 230 229 229 227 215 206 205 203
111 120 120 121 126 131 134 135 140 143 150 164 171 174 164 182 207 206 209 189 176 221 265 267 257 267 278 275 267 260 257 257 258 258 256 256 258 256 250 244 239 239 244 248 250 251 251 250 251 247 236 231 231 231 233 233 232 235 239 240 239 241 244 239 232 231 243 254 257 264 270 266 248 238 234 234 231 228 232 232 229 221 213 209 208
126 129 126 126 129 133 135 137 149 149 155 173 180 193 187 195 211 214 218 218 207 206 241 265 249 253 271 271 267 266 259 252 252 253 254 251 251 253 249 242 238 239 244 247 249 251 252 251 249 245 237 234 234 233 235 235 235 237 240 243 241 240 242 240 237 231 228 243 255 260 266 267 259 247 236 233 231 229 233 231 228 224 219 218 213
134 132 131 130 130 133 141 150 159 160 165 174 178 200 213 215 221 225 226 232 230 209 209 224 226 244 266 266 263 266 262 256 253 254 256 253 249 250 247 242 238 239 244 246 249 254 256 254 248 242 239 237 236 235 235 237 240 241 240 241 239 239 240 235 235 234 223 224 242 253 259 262 261 255 243 234 229 229 232 230 227 224 223 224 217
141 142 138 134 134 137 144 148 153 170 185 189 186 194 218 232 235 241 241 237 240 225 207 201 205 234 264 268 264 259 261 262 258 257 258 256 252 250 246 243 241 242 246 249 252 255 257 255 248 241 238 238 239 240 240 241 244 244 240 240 240 238 238 233 233 236 224 216 232 245 249 253 253 252 248 239 233 230 229 230 229 225 221 220 216
138 144 142 138 142 147 148 145 146 173 199 213 215 212 222 233 241 250 251 244 246 267 267 235 216 223 239 254 256 250 260 267 261 257 259 259 257 256 253 248 246 247 249 251 253 252 253 251 245 241 239 239 240 242 244 244 244 245 243 241 240 238 236 232 232 235 223 212 222 239 245 247 245 249 250 242 237 232 227 229 229 227 221 215 212
141 146 145 144 149 155 157 152 149 160 174 198 213 220 225 231 243 252 259 260 261 270 277 277 270 245 223 231 242 246 255 262 261 260 261 265 266 264 263 259 255 253 253 254 255 253 252 249 244 242 242 242 242 241 243 244 244 244 243 242 242 239 235 231 230 232 225 216 218 229 239 242 240 245 250 247 243 235 228 229 229 227 221 215 210
151 149 157 167 164 167 165 156 156 161 174 192 205 212 213 222 241 246 252 260 261 259 258 272 285 282 263 222 217 237 246 252 258 261 265 270 271 269 268 266 263 260 258 258 257 257 255 252 247 245 246 247 247 246 244 243 242 241 239 240 240 236 234 235 236 236 230 223 222 225 232 236 235 239 245 246 245 237 229 228 230 227 219 216 211
147 145 168 179 170 176 169 165 168 153 164 194 207 209 208 209 221 225 234 244 249 259 256 261 277 287 289 271 234 236 248 255 257 260 267 271 272 274 273 270 269 266 265 262 260 259 259 257 254 250 249 251 253 254 252 247 243 242 240 239 235 233 237 239 241 240 232 225 225 227 229 230 231 235 238 239 240 235 226 223 227 228 222 219 214
140 139 156 159 164 181 172 171 189 182 175 210 229 225 220 215 215 219 231 245 249 253 258 264 267 270 280 285 281 271 265 265 259 258 267 275 277 278 276 272 271 271 271 269 265 261 260 261 260 256 252 252 255 257 256 253 248 245 243 243 241 242 247 245 239 238 234 227 228 230 230 228 228 231 232 232 235 230 222 221 227 231 228 220 216
118 127 150 164 174 188 185 180 198 214 209 225 242 242 234 223 216 221 234 250 258 255 256 263 270 272 275 282 288 287 275 257 253 257 264 272 274 276 278 276 275 274 273 271 269 267 266 264 263 260 256 255 255 255 256 256 252 248 245 244 244 244 248 249 241 236 235 230 229 230 230 228 227 229 230 231 230 224 222 224 227 233 232 221 216
90 106 150 178 180 186 194 195 202 210 214 226 237 240 235 224 215 217 224 237 254 258 257 257 263 269 270 273 280 285 284 268 253 252 257 266 269 272 277 278 277 275 272 270 270 270 271 269 266 263 261 259 256 255 255 255 254 252 248 246 244 242 243 245 243 240 240 238 233 230 227 226 226 228 229 231 226 219 222 224 226 230 230 223 217
51 64 159 179 172 160 164 198 209 214 221 226 230 229 229 226 220 223 228 231 239 246 251 253 254 259 265 269 274 285 298 299 282 264 258 263 267 270 273 275 276 275 274 275 274 273 273 273 271 268 266 264 261 258 256 255 254 253 252 249 245 242 242 240 238 240 243 242 237 233 228 224 224 225 225 226 221 215 222 226 225 227 227 225 222
17 357 359 55 61 64 49 16 346 227 221 224 227 226 227 230 228 234 241 243 248 251 253 253 254 260 265 269 278 288 299 306 305 297 281 268 266 268 270 275 280 281 281 281 279 278 276 274 273 274 272 269 266 264 261 258 256 253 250 249 246 241 239 237 235 237 240 240 239 239 234 227 227 227 222 221 219 214 222 229 227 226 227 229 226
18 28 60 60 55 56 50 36 32 30 21 342 261 248 246 246 243 249 257 261 264 265 268 268 265 267 269 275 282 289 297 303 307 310 310 299 286 277 276 281 287 289 289 287 285 285 283 279 277 277 276 273 269 266 263 262 261 256 249 246 246 243 240 239 239 239 239 239 238 237 238 235 234 234 227 222 220 214 220 227 226 225 227 230 229